Location: Arapaho Elementary School
(32.9607°N, 96.7625°W)
Time: 15:27:45
(UTC+00:00)

Cosmos 1500 Rocket - Visible Passes

Search period start: 03 July 2022 00:00
Search period end: 13 July 2022 00:00
Orbit: 604 x 630 km, 82.5° (Epoch: 03 July)

Date Brightness Start Highest point End Pass type
(mag) Time Alt. Az. Time Alt. Az. Time Alt. Az.
03 Jul 3.5 09:31:04 40° S 09:32:38 87° W 09:37:06 10° N visible
04 Jul 6.2 08:10:49 11° E 08:11:57 12° E 08:13:39 10° ENE visible
04 Jul 4.0 09:47:56 33° WSW 09:49:16 43° W 09:53:31 10° N visible
05 Jul 5.4 08:27:39 22° ESE 08:28:19 23° E 08:31:51 10° NE visible
05 Jul 4.9 10:04:47 20° W 10:06:00 22° WNW 10:09:30 10° NNW visible
06 Jul 4.3 08:44:29 44° ESE 08:44:47 45° E 08:49:02 10° NNE visible
06 Jul 5.6 10:21:36 11° W 10:22:49 12° WNW 10:24:28 10° NW visible
07 Jul 3.4 09:01:16 88° SW 09:01:20 88° WNW 09:05:48 10° N visible
08 Jul 6.3 07:40:56 12° E 07:40:56 12° E 07:42:15 10° ENE visible
08 Jul 4.1 09:18:03 44° WNW 09:18:03 44° WNW 09:22:13 10° N visible
09 Jul 5.6 07:57:41 22° ENE 07:57:41 22° ENE 08:00:30 10° NE visible
09 Jul 5.0 09:34:49 23° WNW 09:34:49 23° WNW 09:38:14 10° NNW visible
10 Jul 4.8 08:14:26 38° ENE 08:14:26 38° ENE 08:17:42 10° NNE visible
10 Jul 5.7 09:51:33 12° WNW 09:51:33 12° WNW 09:53:16 10° NW visible
11 Jul 4.3 08:31:09 50° N 08:31:09 50° N 08:34:29 10° N visible
12 Jul 6.5 07:10:45 10° ENE 07:10:45 10° ENE 07:10:50 10° ENE visible
12 Jul 4.7 08:47:52 35° NW 08:47:52 35° NW 08:50:55 10° N visible
